EW6576 Weather Reports


Display with metric or nautical units.
time (UTC)temp
F
wind
direction
speed
MPH
gust
MPH
rain 1hr
in
rain 24hr
in
rain mn
in
humidity
%
barometer
mb
20260505082340 55 162 0.0 0.0 0.07 0.25 0.25 98 1014.2
20260505081836 55 175 0.0 0.0 0.26 0.25 0.25 98 1014.1
20260505081333 55 106 0.0 0.0 0.19 0.24 0.24 98 1014.3
20260505080830 55 140 0.0 0.0 0.00 0.21 0.21 97 1014.3
20260505080326 55 120 0.0 0.0 0.00 0.21 0.21 97 1014.3
20260505075821 55 100 0.0 0.0 0.00 0.21 0.21 97 1014.4
20260505075319 55 194 0.0 0.0 0.00 0.21 0.21 97 1014.2
20260505074816 55 194 0.0 0.0 0.00 0.21 0.21 97 1014.2
20260505074313 55 192 0.0 0.0 0.05 0.21 0.21 96 1014.3
20260505073811 55 193 0.0 0.0 0.40 0.21 0.21 96 1014.4
20260505073308 55 185 0.0 0.0 0.66 0.20 0.20 96 1014.5
20260505072805 56 186 0.0 1.0 0.66 0.14 0.14 95 1014.6
20260505072301 56 194 0.0 1.0 0.61 0.10 0.10 96 1014.5
20260505071757 56 131 0.0 0.0 0.24 0.04 0.04 95 1014.6
20260505071254 56 130 0.0 0.0 0.00 0.00 0.00 95 1014.5
20260505070751 56 130 0.0 0.0 0.00 0.00 0.00 95 1014.7
20260505070248 56 129 0.0 0.0 0.00 0.00 0.00 95 1014.6
20260505065743 56 129 0.0 0.0 0.00 0.02 0.02 95 1014.6
20260505065240 56 129 0.0 0.0 0.00 0.02 0.02 95 1014.7
20260505064737 55 128 0.0 0.0 0.00 0.02 0.02 95 1014.5
20260505064235 55 128 0.0 0.0 0.00 0.02 0.02 95 1014.6
20260505063732 55 124 0.0 0.0 0.00 0.02 0.02 95 1014.7
20260505063228 55 147 0.0 0.0 0.00 0.02 0.02 95 1014.8
20260505062725 55 147 0.0 0.0 0.00 0.02 0.02 95 1014.9
20260505062223 55 146 0.0 1.0 0.00 0.02 0.02 95 1014.8
20260505061719 55 146 0.0 0.0 0.00 0.02 0.02 95 1014.9
20260505061217 55 147 0.0 0.0 0.00 0.02 0.02 94 1014.8
20260505060714 55 132 1.0 1.0 0.00 0.02 0.02 94 1014.8
20260505060211 55 146 0.0 0.0 0.00 0.02 0.02 94 1014.9
20260505055707 56 146 0.0 0.0 0.00 0.02 0.02 93 1015.1
20260505055203 56 182 0.0 0.0 0.00 0.02 0.02 93 1015.1
20260505054700 56 182 0.0 1.0 0.00 0.02 0.02 93 1014.9
20260505054158 56 195 2.0 2.0 0.00 0.02 0.02 93 1015.1
20260505053656 57 166 0.0 1.0 0.00 0.02 0.02 93 1015.1
20260505053152 57 118 1.0 1.0 0.00 0.02 0.02 93 1015.2
20260505052649 57 133 1.0 2.0 0.00 0.02 0.02 93 1015.1
20260505052147 57 171 0.0 0.0 0.00 0.02 0.02 92 1015.2
20260505051643 57 132 2.0 2.0 0.00 0.02 0.02 92 1015.2
20260505051142 57 147 1.0 1.0 0.00 0.02 0.02 92 1015.4
20260505050639 58 149 2.0 2.0 0.00 0.02 0.02 91 1015.1
20260505050137 58 117 3.0 3.0 0.00 0.02 0.02 91 1015.1
20260505041607 59 131 0.0 0.0 0.00 0.02 0.02 81 1015.2
20260505041104 59 148 1.0 2.0 0.00 0.02 0.02 81 1015.2
20260505040601 59 120 1.0 1.0 0.00 0.02 0.02 82 1015.0
20260505040058 59 170 0.0 0.0 0.00 0.02 0.02 81 1015.0
20260505035555 59 164 0.0 0.0 0.00 0.02 0.02 82 1015.0
20260505035051 59 133 0.0 0.0 0.00 0.02 0.02 82 1014.9
20260505034548 59 114 1.0 1.0 0.00 0.02 0.02 82 1015.4
20260505034045 59 175 2.0 2.0 0.00 0.02 0.02 82 1015.0
20260505033542 59 142 1.0 2.0 0.00 0.02 0.02 82 1015.0
20260505033040 59 131 2.0 2.0 0.00 0.02 0.02 82 1015.0
20260505032538 59 128 2.0 2.0 0.00 0.02 0.02 82 1015.0
20260505032034 59 101 2.0 3.0 0.00 0.02 0.02 82 1014.9
20260505031531 59 137 3.0 3.0 0.00 0.02 0.02 82 1015.0
20260505031027 59 139 2.0 2.0 0.00 0.02 0.02 82 1014.8
20260505030524 59 126 0.0 1.0 0.00 0.02 0.02 82 1014.6
20260505030020 59 151 2.0 3.0 0.00 0.02 0.02 82 1014.7
20260505025516 59 108 4.0 5.0 0.00 0.02 0.02 81 1014.6
20260505025016 59 171 1.0 1.0 0.00 0.02 0.02 81 1014.8
20260505024512 59 189 1.0 1.0 0.00 0.02 0.02 81 1014.4
20260505024009 60 189 1.0 1.0 0.00 0.02 0.02 80 1014.7
20260505023506 60 134 1.0 2.0 0.00 0.02 0.02 80 1014.3
20260505023004 60 214 2.0 3.0 0.00 0.02 0.02 80 1014.7
20260505022501 60 127 2.0 2.0 0.00 0.02 0.02 80 1014.5
20260505021958 60 111 1.0 2.0 0.00 0.02 0.02 80 1014.8
20260505021454 60 184 2.0 3.0 0.00 0.02 0.02 79 1014.6
20260505020950 60 189 2.0 3.0 0.00 0.02 0.02 79 1014.8
20260505020445 60 182 2.0 2.0 0.00 0.02 0.02 78 1014.8
20260505015943 60 197 3.0 3.0 0.00 0.02 0.02 78 1014.6
20260505015440 60 88 4.0 6.0 0.00 0.02 0.02 77 1014.4
20260505014937 61 148 2.0 3.0 0.00 0.02 0.02 77 1014.6
20260505014434 61 179 1.0 2.0 0.00 0.02 0.02 76 1014.6
20260505013931 61 88 2.0 2.0 0.00 0.02 0.02 76 1014.7
20260505013428 61 204 0.0 1.0 0.00 0.02 0.02 75 1014.6
20260505012926 62 157 2.0 2.0 0.00 0.02 0.02 74 1014.9
20260505012424 62 110 2.0 3.0 0.00 0.02 0.02 74 1014.7
20260505011919 63 182 3.0 3.0 0.00 0.02 0.02 71 1014.6
20260505011416 63 199 2.0 2.0 0.00 0.02 0.02 71 1014.7
20260505010913 63 196 3.0 3.0 0.00 0.02 0.02 70 1014.8
20260505010409 63 112 3.0 6.0 0.00 0.02 0.02 71 1014.8
20260505005904 62 220 3.0 5.0 0.00 0.02 0.02 71 1014.7
20260505005402 63 162 5.0 7.0 0.00 0.02 0.02 68 1015.0
20260505004859 63 104 5.0 6.0 0.00 0.02 0.02 67 1014.7
20260505004355 64 178 3.0 5.0 0.00 0.02 0.02 69 1015.1
20260505003853 64 134 5.0 6.0 0.00 0.02 0.02 67 1015.1
20260505003350 65 107 2.0 3.0 0.00 0.02 0.02 67 1015.1
20260505002845 64 69 5.0 8.0 0.00 0.02 0.02 65 1014.8
20260505002343 64 117 5.0 8.0 0.00 0.02 0.02 63 1014.7
20260505001841 64 146 3.0 5.0 0.00 0.02 0.02 64 1014.6
20260505001338 63 228 3.0 3.0 0.00 0.02 0.02 66 1014.9
20260505000835 64 208 8.0 13.0 0.00 0.02 0.02 64 1014.8
20260505000333 64 180 9.0 13.0 0.00 0.02 0.02 64 1014.6
20260504235829 64 172 7.0 8.0 0.00 0.02 0.02 63 1015.0
20260504235326 65 58 4.0 6.0 0.00 0.02 0.02 64 1014.8
20260504234823 64 173 3.0 5.0 0.00 0.02 0.02 64 1014.8
20260504234321 65 140 3.0 5.0 0.00 0.02 0.02 65 1014.8
20260504233817 64 49 6.0 7.0 0.00 0.02 0.02 62 1014.6
20260504233313 64 144 3.0 5.0 0.00 0.02 0.02 60 1014.8
20260504232809 64 134 2.0 5.0 0.00 0.02 0.02 58 1014.9
20260504232307 64 170 4.0 6.0 0.00 0.02 0.02 60 1014.9
20260504231804 64 82 8.0 10.0 0.00 0.02 0.02 60 1014.8
20260504231300 65 212 6.0 8.0 0.00 0.02 0.02 58 1015.0
20260504230756 66 113 4.0 6.0 0.00 0.02 0.02 56 1014.9
20260504230254 66 190 2.0 2.0 0.00 0.02 0.02 56 1015.0
20260504225753 65 68 5.0 9.0 0.00 0.02 0.02 59 1014.7
20260504225249 66 175 7.0 8.0 0.00 0.02 0.02 58 1014.7
20260504224746 66 142 5.0 7.0 0.00 0.02 0.02 58 1014.9
20260504224243 66 197 4.0 7.0 0.00 0.02 0.02 58 1014.8
20260504223739 65 186 5.0 6.0 0.00 0.02 0.02 59 1014.8
20260504223235 66 222 2.0 3.0 0.00 0.02 0.02 59 1014.7
20260504222732 66 192 2.0 2.0 0.00 0.02 0.02 57 1015.1
20260504222229 65 162 2.0 3.0 0.00 0.02 0.02 57 1015.0
20260504221727 66 172 4.0 5.0 0.00 0.02 0.02 57 1015.1
20260504221224 66 208 3.0 5.0 0.00 0.02 0.02 59 1015.0
20260504220720 68 178 5.0 7.0 0.00 0.02 0.02 59 1015.5
20260504220218 68 206 8.0 10.0 0.00 0.02 0.02 59 1015.3
20260504215714 67 121 10.0 15.0 0.00 0.02 0.02 57 1015.3
20260504215211 66 213 4.0 7.0 0.00 0.02 0.02 60 1015.5
20260504214707 66 198 7.0 11.0 0.00 0.02 0.02 59 1015.5
20260504214204 67 172 5.0 7.0 0.00 0.02 0.02 59 1015.3
20260504213700 67 175 6.0 7.0 0.00 0.02 0.02 58 1015.6
20260504213157 68 182 3.0 5.0 0.00 0.02 0.02 55 1015.4
20260504212654 67 231 5.0 7.0 0.00 0.02 0.02 56 1015.6
20260504212150 66 115 7.0 8.0 0.00 0.02 0.02 58 1015.3
20260504211648 67 231 4.0 5.0 0.00 0.02 0.02 57 1015.5
20260504211144 67 118 6.0 8.0 0.00 0.02 0.02 56 1015.7
20260504210642 66 182 4.0 5.0 0.00 0.02 0.02 58 1015.6
20260504210138 67 147 3.0 5.0 0.00 0.02 0.02 58 1015.4
20260504205636 68 107 5.0 6.0 0.00 0.02 0.02 57 1015.8
20260504205133 66 308 5.0 6.0 0.00 0.02 0.02 58 1015.4
20260504204631 67 149 5.0 9.0 0.00 0.02 0.02 59 1015.6
20260504204130 66 107 9.0 13.0 0.00 0.02 0.02 59 1015.6
20260504203628 67 139 4.0 6.0 0.00 0.02 0.02 59 1015.6
20260504203125 66 188 2.0 2.0 0.00 0.02 0.02 59 1015.8
20260504202620 66 94 1.0 2.0 0.00 0.02 0.02 57 1015.6
20260504202117 67 151 5.0 7.0 0.00 0.02 0.02 59 1015.7
20260504201614 67 192 3.0 6.0 0.00 0.02 0.02 57 1015.9
20260504201112 66 189 6.0 14.0 0.00 0.02 0.02 59 1015.8
20260504200608 66 183 7.0 9.0 0.00 0.02 0.02 60 1015.8
20260504200105 67 105 4.0 6.0 0.00 0.02 0.02 61 1015.8
20260504195601 66 167 3.0 6.0 0.00 0.02 0.02 60 1015.8
20260504195057 65 139 5.0 7.0 0.00 0.02 0.02 60 1015.7
20260504194554 65 133 2.0 3.0 0.00 0.02 0.02 62 1016.0
20260504194049 66 152 5.0 6.0 0.00 0.02 0.02 58 1016.1
20260504193546 66 95 3.0 5.0 0.00 0.02 0.02 61 1015.9
20260504193045 65 208 3.0 5.0 0.00 0.02 0.02 59 1016.0
20260504192543 66 176 3.0 5.0 0.00 0.02 0.02 59 1016.0
20260504192041 65 110 4.0 6.0 0.00 0.02 0.02 59 1016.1
20260504191538 65 48 1.0 1.0 0.00 0.02 0.02 61 1016.1
20260504191034 66 219 4.0 6.0 0.00 0.02 0.02 58 1016.1
20260504190531 67 144 2.0 3.0 0.00 0.02 0.02 61 1016.1
20260504190027 66 164 3.0 3.0 0.00 0.02 0.02 60 1016.0
20260504185524 66 171 2.0 6.0 0.00 0.02 0.02 61 1016.1
20260504185020 65 181 2.0 2.0 0.00 0.02 0.02 61 1016.2
20260504184516 65 211 6.0 7.0 0.00 0.02 0.02 62 1016.1
20260504184012 64 195 1.0 2.0 0.00 0.02 0.02 62 1016.0
20260504183509 64 196 3.0 5.0 0.00 0.02 0.02 64 1016.3
20260504183007 64 183 5.0 7.0 0.00 0.02 0.02 64 1016.5
20260504182503 65 77 2.0 3.0 0.00 0.02 0.02 62 1016.6
20260504182001 64 77 6.0 7.0 0.00 0.02 0.02 63 1016.1
20260504181457 65 102 3.0 3.0 0.00 0.02 0.02 63 1016.1
20260504180956 63 143 4.0 5.0 0.00 0.02 0.02 67 1016.5
20260504180455 65 278 3.0 6.0 0.00 0.02 0.02 66 1016.3
20260504175953 63 119 5.0 7.0 0.00 0.02 0.02 68 1016.5
20260504175450 63 154 0.0 0.0 0.00 0.02 0.02 69 1016.3
20260504174947 62 209 6.0 7.0 0.00 0.02 0.02 70 1016.2
20260504174444 63 175 6.0 7.0 0.00 0.02 0.02 67 1016.5
20260504173942 64 136 5.0 6.0 0.00 0.02 0.02 65 1016.5
20260504173438 63 166 4.0 7.0 0.00 0.02 0.02 66 1016.2
20260504172936 62 184 2.0 2.0 0.00 0.02 0.02 67 1016.0
20260504172431 62 202 1.0 1.0 0.00 0.02 0.02 69 1015.9
20260504171928 61 137 3.0 3.0 0.00 0.02 0.02 71 1016.2
20260504171425 61 182 3.0 3.0 0.00 0.02 0.02 73 1016.1
20260504170922 61 93 3.0 7.0 0.00 0.02 0.02 75 1016.0
20260504170418 61 193 3.0 3.0 0.00 0.02 0.02 74 1015.7
20260504160337 61 106 2.0 3.0 0.00 0.02 0.02 77 1015.9
20260504150802 57 98 1.0 1.0 0.00 0.02 0.02 94 1015.7
20260504150259 56 101 0.0 0.0 0.00 0.02 0.02 96 1015.5
20260504141229 54 112 0.0 0.0 0.05 0.02 0.02 96 1015.3
20260504140725 53 130 0.0 0.0 0.00 0.01 0.01 96 1015.2
20260504140221 53 132 0.0 0.0 0.00 0.01 0.01 96 1015.6
20260504130649 52 154 0.0 0.0 0.00 0.01 0.01 96 1015.1
20260504130146 53 156 0.0 0.0 0.00 0.01 0.01 96 1014.9
20260504120110 54 187 1.0 1.0 0.00 0.01 0.01 94 1014.6
20260504110537 56 182 0.0 0.0 0.00 0.01 0.01 92 1014.8
20260504100454 56 183 1.0 2.0 0.00 0.01 0.01 91 1014.4